sat.trackr.live / text

‹ back to catalog

STARLINK-32105

NORAD 59689 · 2024-086H

PAYLOAD ACTIVE UNKNOWN

§ Identity

Operator
Country
US
Launch date
2024-05-08
Launch site
AFETR
Launch vehicle
Mass (kg)
RCS (m²)

Purposes: comms

External: N2YO · Heavens-Above · Gunter

§ Orbital elements

Epoch: 2026-05-24T17:21:47.555712Z

Period
94.27 min
Inclination
43.0033°
Eccentricity
0.0001093
Mean motion
15.27576076 rev/d
Perigee alt
482.3 km
Apogee alt
483.8 km
Semi-major
6,861.2 km
B*
-4.2277e-5
RAAN
350.2358°
Arg perigee
271.1217°
Mean anomaly
88.9509°
Rev number
11,574

§ Raw data

STARLINK-321051 59689U 24086H   26144.72346708 -.00001425  00000+0 -42277-4 0  99902 59689  43.0033 350.2358 0001093 271.1217  88.9509 15.27576076115745

JSON: /api/v1/satellites/59689 · /tle

For live sub-satellite position, see the globe view (requires WebGL).

§ Visibility from observer

Set your observer location to see the next 7 days of passes ≥ 10°. The values pass through the URL so the page stays shareable.

No JS? Fill the form by hand. The geolocation button needs JavaScript.